Location: Bremen
(53.0830°N, 8.8000°E)
Time: 14:00:16
(UTC+02:00)

ISS - Visible Passes

Search period start: 01 October 2022 00:00
Search period end: 11 October 2022 00:00
Orbit: 414 x 417 km, 51.6° (Epoch: 01 October)

Date Brightness Start Highest point End Pass type
(mag) Time Alt. Az. Time Alt. Az. Time Alt. Az.
01 Oct -1.8 20:31:10 10° W 20:33:52 23° SSW 20:35:58 13° SSE visible
02 Oct -2.2 19:42:11 10° W 19:45:12 30° SSW 19:48:11 10° SE visible
03 Oct -1.0 20:31:05 10° WSW 20:32:31 12° SW 20:33:56 10° SSW visible
04 Oct -1.2 19:41:32 10° W 19:43:51 18° SW 19:46:11 10° S visible
